[[{"header":{"parameterUnit":"m.s-1","parameterCategory":1,"la1":30.2991,"la2":30.254,"lo1":-89.0895,"lo2":-89.0444,"dy":0.0017,"dx":0.0017,"nx":28,"ny":28,"refTime":"2025-03-18T09:00:00:Z","depth":0,"parameterNumber":2,"parameterNumberName":"U-component_of_WINDS"},"data":[0,0,0,0,0,0,0,0,0,0,0,0,0,0,0,0,0,0,0,0,0,0,0,0,0,0,0,0,0,0,0,0,0,0,0,0,0,0,0,0,0,0,0,0,0,0,0,0,0,0,0,0,0,0,0,0,0,0,6.4368,6.4368,0,6.4408,6.4408,6.4409,6.4326,6.4323,6.432,6.4318,6.4356,6.436,6.4363,0,0,0,0,0,0,0,0,0,0,0,0,0,6.422,6.4223,6.4368,6.4368,6.4369,6.4408,6.4408,6.4409,6.4326,6.4323,6.432,6.4317,6.4355,6.4359,6.4363,0,0,0,0,0,0,0,0,0,0,0,0,0,6.4274,6.4224,6.4368,6.4332,6.433,6.4408,6.4408,6.4409,6.4327,6.4323,6.4319,6.4315,6.4354,6.4359,6.4364,6.4477,0,0,6.438,6.4383,0,0,0,0,0,0,0,0,6.4271,6.428,6.4337,6.4335,6.4332,6.4358,6.437,6.4432,6.4328,6.4328,6.4318,6.4313,6.436,6.4364,6.4381,6.4479,6.4481,6.4381,6.4384,6.4386,6.4388,0,0,0,0,0,0,0,6.4267,6.4277,6.4383,6.4338,6.4335,6.4314,6.4318,6.4381,6.4366,6.4328,6.4322,6.4328,6.4358,6.4376,6.4381,6.4481,6.4381,6.4385,6.4389,6.4391,6.4677,6.4681,0,0,0,0,0,0,6.4268,6.4275,6.4382,6.4385,6.4291,6.432,6.4324,6.4353,6.4365,6.4363,6.4331,6.4324,6.4369,6.4375,6.4382,6.4516,6.4386,6.4391,6.4394,6.4673,6.4678,6.4683,0,0,0,0,0,0,6.4266,6.4279,6.4381,6.4328,6.434,6.4327,6.4361,6.4356,6.4374,6.4368,6.4364,6.4352,6.4366,6.4374,6.4455,6.4516,6.4393,6.4398,6.4668,6.4674,6.4681,6.4785,0,0,0,0,0,0,6.4262,6.4278,6.4321,6.433,6.4343,6.4453,6.4365,6.436,6.4384,6.4375,6.4387,6.4385,6.4363,6.4448,6.446,6.4521,6.4402,6.4662,6.4671,6.4678,6.4776,6.4795,6.481,0,0,0,0,0,6.4257,6.4348,6.4324,6.4337,6.4396,6.4457,6.4464,6.4438,6.4389,6.4432,6.4428,6.4384,6.4508,6.4456,6.447,6.4534,6.4658,6.4668,6.4678,6.4768,6.4791,6.481,0,0,0,0,0,0,6.4344,6.4348,6.4321,6.4418,6.4438,6.4443,6.4496,6.4463,6.4496,6.4485,6.4451,6.4455,6.4542,6.4546,6.4488,6.4645,6.4575,6.4588,6.4639,6.466,6.4677,6.4673,6.4407,0,0,0,0,0,6.4376,6.4425,6.4425,6.4511,6.4523,6.4508,6.4533,6.4512,6.4531,6.4538,6.454,6.456,6.4603,6.4632,6.4671,6.4777,6.4779,6.4828,6.4845,6.4859,6.487,6.4928,6.495,6.4716,6.4716,6.4715,0,0,6.4439,6.4447,6.448,6.4529,6.4542,6.4594,6.4515,6.4573,6.4611,6.4547,6.4623,6.4626,6.4646,6.474,6.4781,6.4745,6.4936,6.4872,6.4883,6.4887,6.494,6.4963,6.4982,6.4723,6.4721,6.472,0,0,6.4582,6.4593,6.4666,6.4682,6.4703,6.4693,6.4712,6.4722,6.4722,6.4799,6.4752,6.4797,6.4872,6.4888,6.4906,6.506,6.5021,6.5074,6.5162,6.5219,6.5237,6.5253,6.5308,6.5328,6.5086,6.5086,6.5086,0,6.4658,6.4735,6.4708,6.477,6.4793,6.474,6.4814,6.4829,6.4862,6.488,6.484,6.4935,6.4944,6.5042,6.508,6.5096,6.5116,6.5071,6.5237,6.5253,6.5268,6.5319,6.534,6.5092,6.5091,6.5091,6.509,0,6.4827,6.4882,6.4939,6.4974,6.5003,6.5071,6.5055,6.5088,6.5066,6.506,6.514,6.515,6.5191,6.5213,6.5191,6.5309,6.5286,6.5243,6.5171,6.5297,6.5345,6.5364,6.5101,6.5099,6.5097,6.5095,0,0,6.5023,6.5045,6.5066,6.5082,6.5104,6.5145,6.5212,6.5254,6.5283,6.5309,6.5363,6.543,6.5391,6.5412,6.5391,6.5441,6.5562,6.5391,6.5391,6.5422,6.5693,6.5725,6.5748,6.5538,6.5541,6.5544,6.5691,0,6.5164,6.5279,6.5258,6.5369,6.542,6.5372,6.543,6.5449,6.5447,6.549,6.5487,6.5535,6.5479,6.5492,6.5539,6.5537,6.5616,6.5527,6.5587,6.559,6.5582,6.5773,6.5806,6.5944,6.571,6.5713,6.5716,0,6.5343,6.5378,6.5495,6.5511,6.5531,6.5583,6.5621,6.5663,6.5685,6.568,6.5705,6.5676,6.5742,6.5672,6.5763,6.5703,6.5727,6.573,6.5735,6.5738,6.5659,6.5781,6.5988,6.6008,6.5745,6.5742,6.574,0,6.5474,6.555,6.563,6.5645,6.5666,6.5704,6.5714,6.5732,6.576,6.5793,6.581,6.5851,6.5873,6.5905,6.5888,6.5838,6.5982,6.591,6.5979,6.598,6.601,6.6008,6.6223,6.6028,6.6028,6.6028,6.6027,0,6.5633,6.5706,6.5689,6.5738,6.5819,6.5796,6.5877,6.5881,6.5899,6.5948,6.5909,6.5956,6.5931,6.5977,6.5964,6.6042,6.6052,6.605,6.6045,6.6052,6.6052,6.6066,6.6055,6.6033,6.6032,6.6031,6.603,0,6.5791,6.5783,6.5867,6.5881,6.5886,6.5946,6.5957,6.6003,6.6,6.6063,6.6076,6.607,6.6122,6.6109,6.6165,6.6156,6.6254,6.6238,6.6247,6.6242,6.6312,6.6306,6.6542,6.6572,6.636,6.6362,6.6363,0,6.5892,6.5948,6.5969,6.6,6.6014,6.6064,6.6092,6.6072,6.6103,6.6135,6.6177,6.6226,6.6263,6.6348,6.6349,6.6392,6.6376,6.6456,6.6381,6.6388,6.6376,6.6372,6.6377,6.647,6.6472,6.6474,6.6476,0,6.6072,6.6067,6.6109,6.6153,6.6188,6.622,6.6249,6.6276,6.6259,6.6296,6.6349,6.6379,6.6437,6.6486,6.6526,6.6536,6.6503,6.65,6.6518,6.6525,6.6527,6.6526,6.6286,6.6494,6.6492,6.649,6.6489,6.6489,6.6204,6.6252,6.6276,6.6325,6.6346,6.6374,6.6418,6.6422,6.6466,6.6513,6.6499,6.656,6.6582,6.6633,6.6649,6.6696,6.6665,6.6692,6.6698,6.6705,6.6713,6.6522,6.6703,6.6703,6.6702,6.6702,6.6701,0,6.6382,6.6396,6.6442,6.6484,6.6524,6.6493,6.6523,6.6558,6.6612,6.6637,6.6676,6.6738,6.6786,6.6792,6.6837,6.6874,6.686,6.6886,6.6882,6.6885,6.6738,6.6717,6.6897,6.6897,6.6897,6.6896,6.6896,6.6896,6.6479,6.6559,6.6556,6.6646,6.6658,6.6719,6.6739,6.6765,6.6785,6.6856,6.6897,6.6901,6.6918,6.6965,6.7008,6.7008,6.7026,6.7058,6.7053,6.6915,6.6895,6.6877,6.6857,6.7063,6.7063,6.7196,6.7197,6.7198]},{"header":{"parameterUnit":"m.s-1","parameterCategory":1,"la1":30.2991,"la2":30.254,"lo1":-89.0895,"lo2":-89.0444,"dy":0.0017,"dx":0.0017,"nx":28,"ny":28,"refTime":"2025-03-18T09:00:00:Z","depth":0,"parameterNumber":3,"parameterNumberName":"V-component_of_WINDS"},"data":[0,0,0,0,0,0,0,0,0,0,0,0,0,0,0,0,0,0,0,0,0,0,0,0,0,0,0,0,0,0,0,0,0,0,0,0,0,0,0,0,0,0,0,0,0,0,0,0,0,0,0,0,0,0,0,0,0,0,1.8124,1.8126,0,1.8358,1.836,1.8363,1.8429,1.8427,1.8426,1.8425,1.8666,1.8674,1.8681,0,0,0,0,0,0,0,0,0,0,0,0,0,1.7734,1.7741,1.8124,1.8127,1.813,1.8357,1.8361,1.8364,1.8429,1.8427,1.8426,1.8424,1.8664,1.8673,1.8682,0,0,0,0,0,0,0,0,0,0,0,0,0,1.7929,1.7743,1.8123,1.8189,1.8198,1.8357,1.8361,1.8365,1.8429,1.8427,1.8425,1.8423,1.8661,1.8672,1.8683,1.8794,0,0,1.8719,1.8724,0,0,0,0,0,0,0,0,1.7918,1.7943,1.8177,1.8185,1.8195,1.8362,1.8312,1.8509,1.843,1.8341,1.8425,1.8422,1.8567,1.8586,1.8634,1.8805,1.8816,1.872,1.8727,1.8732,1.8735,0,0,0,0,0,0,0,1.7904,1.7934,1.8216,1.818,1.8191,1.8208,1.8233,1.8349,1.8462,1.8349,1.8354,1.8381,1.8571,1.8623,1.864,1.8819,1.8719,1.873,1.8737,1.8741,1.9091,1.9093,0,0,0,0,0,0,1.7879,1.7922,1.8209,1.8223,1.8048,1.8216,1.8245,1.831,1.8461,1.8482,1.8382,1.8383,1.8604,1.8627,1.8649,1.8788,1.8731,1.8742,1.8749,1.9089,1.9092,1.9094,0,0,0,0,0,0,1.7871,1.7904,1.82,1.8074,1.8113,1.8225,1.8298,1.8316,1.8368,1.8487,1.8507,1.8414,1.8604,1.8633,1.8757,1.8797,1.8747,1.8758,1.9086,1.909,1.9093,1.9067,0,0,0,0,0,0,1.7859,1.7901,1.7944,1.8075,1.8119,1.8303,1.8301,1.8322,1.8387,1.839,1.8522,1.8542,1.8604,1.8739,1.8768,1.8812,1.8767,1.9083,1.9088,1.9092,1.9064,1.9069,1.9073,0,0,0,0,0,1.7845,1.7928,1.7946,1.798,1.8176,1.8306,1.8331,1.8401,1.839,1.8434,1.851,1.8538,1.8788,1.8752,1.8785,1.8833,1.9081,1.9086,1.9091,1.9063,1.9068,1.9073,0,0,0,0,0,0,1.7801,1.7947,1.7968,1.8096,1.8188,1.8316,1.8375,1.8405,1.8502,1.8501,1.8584,1.8613,1.8731,1.8794,1.8751,1.8947,1.8935,1.8947,1.8901,1.8908,1.8912,1.8894,1.8776,0,0,0,0,0,1.7806,1.7899,1.8021,1.8122,1.8167,1.8262,1.8322,1.8367,1.8466,1.8505,1.859,1.8686,1.8785,1.885,1.8949,1.9073,1.9103,1.9122,1.9126,1.9129,1.9139,1.9209,1.9219,1.9112,1.9112,1.9112,0,0,1.7818,1.7909,1.7963,1.8115,1.8192,1.8286,1.8295,1.8395,1.8466,1.8521,1.8643,1.8708,1.882,1.8944,1.9003,1.9,1.9175,1.9136,1.9137,1.9146,1.9215,1.9225,1.9234,1.9116,1.9115,1.9114,0,0,1.7887,1.7965,1.8058,1.8133,1.8248,1.8311,1.8332,1.8457,1.8502,1.8625,1.8668,1.8753,1.8924,1.9001,1.9063,1.9158,1.9187,1.9188,1.921,1.9277,1.9285,1.9293,1.9327,1.9338,1.9197,1.9197,1.9197,0,1.7888,1.8032,1.8102,1.8199,1.8264,1.8316,1.841,1.8481,1.8622,1.8666,1.866,1.8874,1.8953,1.9096,1.9119,1.9167,1.9194,1.9174,1.9278,1.9287,1.9295,1.9328,1.9341,1.9196,1.9196,1.9196,1.9197,0,1.8026,1.8124,1.8185,1.8319,1.8391,1.8486,1.857,1.8635,1.8673,1.8736,1.886,1.8956,1.9074,1.9111,1.915,1.9259,1.9253,1.9262,1.9252,1.9303,1.9336,1.9349,1.9195,1.9196,1.9196,1.9196,0,0,1.8078,1.8246,1.8268,1.8328,1.8457,1.8535,1.8631,1.8746,1.8799,1.8894,1.8977,1.9119,1.9127,1.9196,1.9244,1.9302,1.9371,1.9304,1.9308,1.9313,1.9496,1.9489,1.9503,1.939,1.9392,1.9395,1.9487,0,1.8164,1.8338,1.8403,1.8545,1.8637,1.8686,1.877,1.8858,1.8918,1.9005,1.9072,1.9171,1.9174,1.9216,1.9276,1.935,1.9409,1.9344,1.9468,1.9472,1.944,1.952,1.9514,1.9597,1.95,1.9502,1.9504,0,1.8289,1.8383,1.8535,1.865,1.8691,1.8766,1.8875,1.8956,1.9057,1.9096,1.9172,1.9215,1.9318,1.9299,1.9442,1.9396,1.945,1.9494,1.9499,1.9514,1.9492,1.9538,1.9625,1.9637,1.9525,1.9523,1.9522,0,1.8311,1.8476,1.8588,1.8638,1.8776,1.8827,1.8887,1.8985,1.9049,1.9144,1.9186,1.9292,1.935,1.9431,1.9501,1.9481,1.9636,1.9624,1.9673,1.9671,1.9705,1.9702,1.9802,1.9738,1.9738,1.9737,1.9737,0,1.8401,1.8492,1.8599,1.8668,1.8771,1.8843,1.8943,1.9006,1.9092,1.9174,1.9223,1.9298,1.9386,1.9473,1.9528,1.9637,1.9663,1.9698,1.9712,1.9694,1.969,1.9732,1.9729,1.9741,1.974,1.9739,1.9739,0,1.8445,1.852,1.8645,1.8764,1.8796,1.8866,1.8969,1.9037,1.9098,1.9201,1.9229,1.9326,1.943,1.9507,1.9643,1.968,1.9796,1.981,1.9762,1.977,1.9814,1.9808,1.9945,1.9967,1.9887,1.9888,1.9888,0,1.8498,1.8569,1.8695,1.8752,1.8811,1.8904,1.8968,1.9042,1.9107,1.9225,1.9279,1.9386,1.9476,1.9641,1.9723,1.9827,1.9844,1.9884,1.986,1.9839,1.9845,1.984,1.9847,1.9888,1.9889,1.9889,1.989,0,1.8584,1.8617,1.8709,1.8812,1.8888,1.8973,1.9059,1.9104,1.9192,1.9263,1.937,1.9439,1.9576,1.9682,1.9793,1.9855,1.9887,1.9896,1.9913,1.9896,1.9866,1.9883,1.9772,1.9893,1.9893,1.9893,1.9892,1.9892,1.8635,1.8699,1.8797,1.8897,1.8969,1.9047,1.9117,1.9186,1.9276,1.9392,1.943,1.954,1.9636,1.9789,1.9851,1.9938,1.9938,1.9962,1.9969,1.9974,1.9972,1.985,1.9959,1.9959,1.9959,1.9959,1.9959,0,1.8724,1.8789,1.8879,1.8997,1.9075,1.9096,1.9192,1.9256,1.9352,1.9438,1.9525,1.9647,1.9749,1.9838,1.9944,1.9996,2.0014,2.0022,2.0019,2.0033,1.9967,1.9942,2.0006,2.0006,2.0006,2.0006,2.0006,2.0006,1.878,1.8889,1.8933,1.9079,1.9143,1.9251,1.9303,1.9376,1.9445,1.9578,1.9663,1.972,1.9808,1.992,2.0014,2.0038,2.0075,2.008,2.0107,2.0044,2.0038,2.0032,2.0009,2.0087,2.0087,2.0166,2.0167,2.0167]}]]